Preview of NWS' New Version of Forecast
This preview is not operational and should not be used for support decisions.

Regional Weather Roundup (RWR)

Issued by Gray - Portland, ME (GYX)

                            
244 
ASUS41 KGYX 261705
RWRGYX
WEATHER ROUNDUP FOR MAINE AND NEW HAMPSHIRE
NATIONAL WEATHER SERVICE GRAY ME
100 PM EDT SAT MAY 26 2018

MEZ002-005-006-010-012-015-018-020-021-024-026-027-029-261800-
MAINE
  
CITY           SKY/WX    TMP DP  RH WIND       PRES   REMARKS
PORTLAND       CLOUDY    70  63  78 E8        29.76R                  
SANFORD        FAIR      79  58  48 W7        29.76S                  
BAR HARBOR     CLOUDY    73  62  68 W7        29.73R                  
WISCASSET      LGT RAIN  68  66  93 VRB3      29.77S                  
ROCKLAND       FAIR      68  65  90 W8        29.74S                  
FRYEBURG       LGT RAIN  72  62  71 CALM      29.76S                  
LEWISTONAUBURN LGT RAIN  68  65  90 CALM      29.76F                  
AUGUSTA        PTSUNNY   69  63  81 W6        29.75S                  
WATERVILLE     FAIR      71  64  78 W3        29.71F                  
BANGOR         PTSUNNY   73  62  68 NW8       29.73R                  
GREENVILLE       N/A     66  51  58 N10       29.77R                  
MILLINOCKET    FAIR      71  46  40 VRB6      29.76R                  
HOULTON        FAIR      65  49  56 N13       29.76R                  
PRESQUE ISLE   FAIR      64  36  35 NW14G20   29.79R                  
FRENCHVILLE    FAIR      63  32  31 N17G30    29.80R                  
CARIBOU        FAIR      64  34  32 NW21G28   29.77R                  
$$

NHZ002-005-008-009-011-012-014-261800-
NEW HAMPSHIRE
  
CITY           SKY/WX    TMP DP  RH WIND       PRES   REMARKS
PORTSMOUTH     CLOUDY    84  56  38 NW14      29.74R                  
ROCHESTER      FAIR      80  59  48 NW9       29.76R                  
NASHUA         FAIR      87  57  35 VRB5      29.75S                  
MANCHESTER     CLOUDY    89  54  30 W13       29.73S                  
CONCORD        FAIR      81  57  43 W5        29.76S                  
LACONIA        FAIR      79  59  50 NW9       29.77S                  
PLYMOUTH       FAIR      78  58  49 W5        29.76S                  
BERLIN         LGT RAIN  66  63  90 CALM      29.80R                  
WHITEFIELD     LGT RAIN  67  62  84 W5        29.81R                  
JAFFREY        FAIR      82  54  37 S8        29.80S                  
KEENE          FAIR      84  57  39 SW13      29.77F                  
LEBANON        FAIR      81  58  45 SE5       29.75S                  
MT WASHINGTON  FOG       48  48 100 NW31        N/A  VSB 1/16         
$$

VTZ005-007-008-261800-
VERMONT
  
CITY           SKY/WX    TMP DP  RH WIND       PRES   REMARKS
ST JOHNSBURY     N/A     68  65  90 MISG      29.79R                  
MONTPELIER     PTSUNNY   71  61  70 NW8       29.85R                  
BURLINGTON     CLOUDY    70  60  70 N7        29.80R                  
$$

MAZ007-012-024-CTZ003-RIZ002-NYZ038-NYZ072-261800-
SOUTHERN NEW ENGLAND AND NY
  
CITY           SKY/WX    TMP DP  RH WIND       PRES   REMARKS
BOSTON         PTSUNNY   85  55  35 W8        29.75S                  
WORCESTER      FAIR      82  55  39 W12       29.80F                  
NANTUCKET      CLOUDY    60  58  92 SW15      29.82S FOG              
PROVIDENCE     FAIR      88  57  34 SW8       29.77F                  
HARTFORD       PTSUNNY   91  53  27 NW8       29.77F                  
ALBANY         PTSUNNY   87  57  35 W8        29.78F                  
NEW YORK CITY  PTSUNNY   90  64  42 SW9       29.79F HX  91           
$$

ANZ081-ANZ082-ANZ150-NHZ014-MEZ023>029-261800-
COASTAL MARINE OBSERVATIONS
  
STATION/POSITION TIME  TEMP    WIND        PRES    WAVE
                       AIR SEA DIR/SP/G            HT/PER
                 (UTC) (F)     (DEG/KT/KT) (MB)    (FT/S)
MOUNT DESERT ROC 1700   54     260/ 18/ 19 1006.9R
MATINICUS ROCK   1600   57     270/ 13/ 14 1006.7R
ISLE OF SHOALS   1600   78     290/  5/  6 1006.7R
JEFFREYS LEDGE   1636      56                N/A     2/ 5
$$

.............KEY..............
   WCI - WIND CHILL
   TC  - TEMPERATURE IN CELSIUS
   VSB - VISIBILITY IN MILES
   HX  - HEAT INDEX
   FAIR- INDICATES FEW OR NO CLOUDS BELOW 12,000 FT, WITH NO 
         SIGNIFICANT WEATHER AND/OR OBSTRUCTIONS TO VISIBILITY.